Location: Warszawa
(52.2500°N, 21.0000°E)
Time: 14:56:24
(UTC+02:00)

Vanguard 2 - Pass Details

Date: 14 February 2023
Orbit: 553 x 2927 km, 32.9° (Epoch: 27 March)

Event Time Altitude Azimuth Distance (km) Brightness Sun altitude
Rises 20:42:02 0° 244° (WSW) 4,476 11.9 -35.7°
Reaches altitude 10° 20:45:08 10° 234° (SW) 3,817 11.3 -36.1°
Enters shadow 20:51:48 28° 193° (SSW) 3,211 10.4 -37.0°
Maximum altitude 20:53:45 29° 179° (S) 3,297 - -37.2°
Drops below altitude 10° 21:05:47 10° 128° (SE) 5,403 - -38.8°
Sets 21:11:16 0° 119° (ESE) 6,636 - -39.5°
